White Rock, British Columbia

8:44 PM PDT on May 25, 2017 (GMT -0700)
White Rock

Weather History for CWWK - January, 2013

Change the Weather History Date:

Friday, January 11, 2013

  Actual Average Record
Temperature  
Mean Temperature 34 °F -  
Max Temperature 41 °F - - ()
Min Temperature 26 °F - - ()
Degree Days  
Heating Degree Days 32    
Moisture  
Dew Point 22 °F    
Average Humidity 69    
Maximum Humidity 87    
Minimum Humidity 33    
Precipitation  
Precipitation 0.00 in - - ()
Sea Level Pressure  
Sea Level Pressure 30.31 in    
Wind  
Wind Speed 3 mph ()    
Max Wind Speed 5 mph    
Max Gust Speed -    
T = Trace of Precipitation, MM = Missing Value Source: Averaged Metar Reports

Daily Weather History Graph

Daily Weather History Graph

Search for Another Location

Airport or City:

Trip Planner

Search our weather history database for the weather conditions in past years. The results will help you decide how hot, cold, wet, or windy it might be!

Date:

Astronomy

Jan. 11, 2013 Rise Set
Actual Time 8:02 AM PST 4:36 PM PST
Civil Twilight 7:25 AM PST 5:13 PM PST
Nautical Twilight 6:46 AM PST 5:52 PM PST
Astronomical Twilight 6:07 AM PST 6:30 PM PST
Moon 7:35 AM PST (1/11) 5:07 PM PST (1/11)
Length of Visible Light 9h 47m
Length of Day
8h 34m
New Moon, 0% of the Moon is Illuminated
Jan 11
New Moon
Jan 18
First Quarter
Jan 26
Full
Feb 3
Last Quarter
Feb 9
New

Hourly Weather History & Observations

Time (PST) Temp. Windchill Dew Point Humidity Pressure Visibility Wind Dir Wind Speed Gust Speed Precip Events Conditions
12:00 AM 30.7 °F 26.0 °F 26.8 °F 85% 30.18 in - NNE 4.6 mph - N/A   Unknown
1:00 AM 30.2 °F 26.7 °F 26.6 °F 86% 30.20 in - NNE 3.5 mph - N/A   Unknown
2:00 AM 30.0 °F 26.5 °F 26.4 °F 86% 30.21 in - North 3.5 mph - N/A   Unknown
3:00 AM 28.4 °F - 25.0 °F 87% 30.22 in - NNE 2.3 mph - N/A   Unknown
4:00 AM 28 °F - 24 °F 81% 30.24 in - North 2.3 mph - -  
4:00 AM 28.2 °F - 24.4 °F 86% 30.24 in - North 2.3 mph - N/A   Unknown
5:00 AM 28.0 °F - 23.5 °F 83% 30.24 in - NE 2.3 mph - N/A   Unknown
6:00 AM 27.5 °F - 22.8 °F 83% 30.26 in - ENE 2.3 mph - N/A   Unknown
7:00 AM 28.8 °F 23.7 °F 23.7 °F 81% 30.29 in - North 4.6 mph - N/A   Unknown
8:00 AM 27.1 °F 23.2 °F 22.6 °F 83% 30.32 in - NNE 3.5 mph - N/A   Unknown
9:00 AM 28.8 °F 25.0 °F 23.2 °F 80% 30.34 in - ENE 3.5 mph - N/A   Unknown
10:00 AM 32 °F - 24 °F 61% 30.34 in - NNE 2.3 mph - -  
11:00 AM 35.6 °F 32.8 °F 21.6 °F 57% 30.35 in - North 3.5 mph - N/A   Unknown
12:00 PM 37.6 °F 35.1 °F 21.4 °F 52% 30.34 in - North 3.5 mph - N/A   Unknown
1:00 PM 39.6 °F - 17.8 °F 41% 30.33 in - North 2.3 mph - N/A   Unknown
2:00 PM 39.9 °F - 18.3 °F 42% 30.33 in - West 1.2 mph - N/A   Unknown
3:00 PM 39.0 °F 36.8 °F 21.7 °F 50% 30.35 in - West 3.5 mph - N/A   Unknown
4:00 PM 38 °F - 19 °F 33% 30.35 in - NW 2.3 mph - -  
4:00 PM 37.6 °F - 19.2 °F 48% 30.35 in - NW 2.3 mph - N/A   Unknown
5:00 PM 34.5 °F 31.6 °F 23.9 °F 65% 30.36 in - NNW 3.5 mph - N/A   Unknown
6:00 PM 31.5 °F 28.1 °F 24.1 °F 74% 30.35 in - NNE 3.5 mph - N/A   Unknown
7:00 PM 30.2 °F - 24.4 °F 79% 30.35 in - NNE 2.3 mph - N/A   Unknown
9:00 PM 29.1 °F 25.4 °F 19.9 °F 69% 30.36 in - NNE 3.5 mph - N/A   Unknown
10:00 PM 28 °F - 19 °F 59% 30.36 in - NE 1.2 mph - -  
10:00 PM 28.4 °F - 19.4 °F 69% 30.36 in - NE 1.2 mph - N/A   Unknown
11:00 PM 28.0 °F 24.2 °F 20.3 °F 73% 30.35 in - NE 3.5 mph - N/A   Unknown